Location: Marcé
(47.5801°N, 0.3280°W)
Time: 20:05:36
(UTC+01:00)

Explorer 7 - Pass Details

Date: 04 December 2021
Orbit: 483 x 674 km, 50.3° (Epoch: 17 January)

Event Time Altitude Azimuth Distance (km) Brightness Sun altitude
Rises 06:10:23 0° 214° (SSW) 2,850 - -23.0°
Reaches altitude 10° 06:12:56 10° 203° (SSW) 1,915 - -22.6°
Exits shadow 06:13:44 14° 197° (SSW) 1,653 9.2 -22.5°
Maximum altitude 06:16:43 29° 143° (SE) 1,059 8.7 -22.0°
Drops below altitude 10° 06:20:18 10° 83° (E) 1,817 10.5 -21.4°
Sets 06:22:40 0° 72° (ENE) 2,679 11.4 -21.0°
